Location: Ovington
(52.0500°N, 0.5500°E)
Time: 22:59:17
(UTC+00:00)

Daily predictions for brighter satellites

Satellite Brightness Start Highest point End
(mag) Time Altitude Azimuth Time Altitude Azimuth Time Altitude Azimuth
Cosmos 676 Rocket 4.3 17:52:53 10° SSW 17:58:03 74° WNW 18:03:16 10° NNE
Cosmos 540 Rocket 4.3 17:55:08 10° NNW 18:00:09 56° WSW 18:05:08 10° S
Cosmos 1674 Rocket 3.7 17:57:24 10° N 18:01:45 54° ENE 18:06:05 10° SSE
Cosmos 1766 4.2 17:59:04 10° SSE 18:02:26 28° E 18:05:50 10° NNE
Meteor 2-10 4.4 17:58:34 10° S 18:03:57 50° E 18:09:12 10° NNE
ARGOS 4.4 17:59:27 10° S 18:04:36 47° W 18:09:49 10° NNW
ATLAS 2AS CENTAUR R/B 4.0 17:58:52 10° WNW 18:05:43 35° NNW 18:12:14 10° NE
YAOGAN 1 2.9 18:03:34 10° SE 18:07:41 46° ENE 18:11:51 10° N
Okean O Rocket 2.0 18:07:26 10° SE 18:11:33 43° ENE 18:15:44 10° N
Cosmos 2084 3.3 18:08:38 10° SW 18:12:27 79° NW 18:16:18 10° NE
SKYMED 2 3.5 18:08:45 10° NNE 18:13:07 72° ESE 18:17:27 10° S
Meteor 2-5 Rocket 4.2 18:08:42 10° N 18:13:52 38° ENE 18:18:59 10° SE
Nadezhda 4 Rocket 4.3 18:10:30 10° SSE 18:16:28 46° E 18:22:25 10° NNE
Cosmos 2285 Rocket 4.0 18:13:55 10° NNW 18:20:17 72° ENE 18:26:40 10° SSE
PSLV R/B 3.8 18:20:08 10° S 18:23:48 75° WSW 18:27:28 10° NNW
Cosmos 1726 2.1 18:20:54 10° S 18:24:28 58° E 18:28:05 10° NNE
USA 186 3.4 18:22:41 13° ESE 18:24:39 20° ENE 18:27:10 10° NNE
Cosmos 2322 Rocket 3.3 18:20:34 10° SSE 18:24:45 21° E 18:28:57 10° NE
Cosmos 841 Rocket 4.4 18:21:54 10° NNW 18:26:56 52° WSW 18:31:54 10° S
Cosmos 1378 Rocket 3.6 18:23:56 10° NNW 18:28:21 86° WSW 18:32:41 10° S
Cosmos 1470 3.8 18:26:13 10° SE 18:29:17 23° E 18:32:22 10° NE
Cosmos 1975 Rocket 4.0 18:25:30 10° N 18:29:23 29° ENE 18:33:09 10° SE
CZ-4B R/B 3.2 18:24:41 10° SSE 18:30:05 84° ENE 18:35:39 10° NNW
ARGOS Delta rocket 4.0 18:25:04 10° NNE 18:30:21 63° E 18:35:18 10° S
Cosmos 1980 Rocket 2.2 18:24:42 10° SSW 18:30:21 87° WNW 18:36:01 10° NNE
DMSP B5D2-2 4.2 18:25:49 10° NNE 18:31:09 85° WNW 18:36:25 10° SSW
Cosmos 2292 Rocket 3.9 18:34:47 10° SSE 18:39:20 39° E 18:42:55 10° NNE
Meteor 2-14 Rocket 4.4 18:35:13 10° S 18:41:16 81° E 18:47:22 10° NNE
Cosmos 1733 Rocket 3.8 18:39:06 10° SSW 18:43:30 59° WNW 18:47:56 10° N
Cosmos 1850 Rocket 4.2 18:38:37 10° SSW 18:43:51 76° WNW 18:49:11 10° NNE
USA 215 3.3 18:37:39 10° ENE 18:44:14 84° SSE 18:50:47 10° WSW
Cosmos 2369 4.2 18:42:24 10° SW 18:48:06 66° NW 18:53:48 10° NNE
COBE Rocket 4.1 18:43:30 10° S 18:48:19 71° WSW 18:53:02 10° NNW
Cosmos 1844 Rocket 2.9 18:42:57 10° NNW 18:48:33 55° NE 18:52:59 16° SE
Cosmos 1943 Rocket 4.4 18:51:48 10° N 18:53:42 12° NNE 18:55:36 10° NNE
Cosmos 2278 3.6 18:48:04 10° SSW 18:53:46 82° ESE 18:59:28 10° NNE
Cosmos 1570 Rocket 4.1 18:48:38 10° NNW 18:53:55 82° WSW 18:59:09 10° SSE
SL-16 R/B 2.4 18:49:17 10° S 18:54:39 45° ESE 19:00:02 10° NE
Landsat 5 4.3 18:50:48 10° NNE 18:54:49 31° E 18:58:46 10° SSE
Cosmos 1092 Rocket 4.1 18:51:51 10° SSE 18:57:55 53° E 19:03:58 10° NNE
DMSP B5D1-3 4.4 18:55:12 10° NNE 19:00:19 68° ESE 19:05:24 10° S
COSMO-SKYMED 1 3.9 18:56:58 10° N 19:01:05 42° WNW 19:05:11 10° SW
Resurs 01 Rocket 2.9 19:01:19 21° ENE 19:01:57 22° ENE 19:05:20 10° N
Cosmos 2278 Rocket 3.8 18:59:10 10° NNW 19:03:13 20° NNE 19:05:42 15° ENE
Meteor 2-21 Rocket 4.4 18:57:55 10° S 19:03:58 84° E 19:10:04 10° NNE
SJ-6B 2.9 19:02:07 24° SE 19:04:03 49° ENE 19:07:46 10° N
HJ-1C 4.4 19:02:23 10° S 19:05:22 43° W 19:08:22 10° NNW
Gbstr 26 Del rocket 4.5 18:58:59 10° WSW 19:06:35 74° SSE 19:12:38 20° E
Cosmos 1437 Rocket 2.5 19:03:04 10° S 19:06:48 77° ESE 19:10:33 10° NNE
H-2A R/B 3.5 19:07:12 25° ENE 19:07:18 25° ENE 19:10:28 10° N
Cosmos 2263 Rocket 3.9 19:02:23 10° NW 19:07:26 33° WSW 19:12:29 10° S
Meteor 1-24 Rocket 3.5 19:04:03 10° NNW 19:09:23 82° ENE 19:14:46 10° SSE
Resurs 1-3 3.9 19:11:26 29° ESE 19:13:13 46° ENE 19:17:26 10° N
SL-4 R/B 3.9 19:10:57 10° W 19:14:43 27° SW 19:17:51 14° SSE
Cosmos 921 Rocket 4.4 19:11:34 10° N 19:15:12 23° NE 19:15:35 23° ENE
STPSAT 2 (USA 217) 4.5 19:11:27 10° SSW 19:16:00 76° ESE 19:20:32 10° NNE
MetOp-A 4.1 19:17:19 32° ENE 19:17:27 32° ENE 19:21:03 10° N
Cosmos 2084 Rocket 3.6 19:14:08 10° NW 19:17:54 57° SW 19:19:51 27° SSE
Meteor 2-16 Rocket 4.4 19:11:48 10° S 19:17:57 90° ESE 19:24:10 10° N
Cosmos 2208 Rocket 4.5 19:17:13 10° NNW 19:22:32 63° WSW 19:27:54 10° S
Okean-O 2.5 19:20:30 26° SSE 19:22:53 69° ENE 19:27:19 10° N
Cosmos 1844 3.6 19:17:32 10° NNW 19:23:08 77° ENE 19:26:12 28° SE
Cosmos 1486 Rocket 4.4 19:19:14 10° S 19:24:10 40° ESE 19:29:08 10° NE
CZ-4 R/B 2.5 19:20:15 10° S 19:24:17 46° W 19:28:19 10° NNW
OBJECT-B 0.5 19:24:56 63° W 19:24:56 63° W 19:27:20 10° NNW
IGS 5A 3.3 19:24:37 28° SSE 19:26:46 80° ENE 19:30:56 10° NNW
DNEPR-1 R/B 4.2 19:23:31 10° S 19:28:01 44° ESE 19:30:35 26° ENE
S3M 4.4 19:22:30 10° N 19:28:22 40° ENE 19:30:09 33° ESE
Helios 1B 4.4 19:24:28 10° NNE 19:28:49 84° ESE 19:33:10 10° SSW
Meteor 1-22 Rocket 4.1 19:23:49 10° S 19:29:16 85° E 19:34:59 10° NNE
Cosmos 773 Rocket 4.4 19:24:28 10° NNW 19:29:36 47° ENE 19:31:01 38° E
Cosmos 1300 Rocket 3.5 19:30:15 37° SSE 19:31:40 54° E 19:35:56 10° NNE
Cosmos 1908 Rocket 4.3 19:27:40 10° SSW 19:31:54 52° WNW 19:36:10 10° N
CSL-04 Debris 4.2 19:28:02 12° SSE 19:33:06 83° WSW 19:38:32 10° NNW
Cosmos 1428 Rocket 4.4 19:27:17 10° S 19:33:30 88° E 19:39:49 10° N
Cosmos 1627 Rocket 4.3 19:30:50 10° S 19:36:57 85° E 19:43:09 10° N
USA 81 4.1 19:32:44 10° N 19:38:02 81° W 19:43:19 10° S
Cosmos 2360 Rocket 2.3 19:33:46 10° S 19:39:09 48° ESE 19:44:34 10° NE
Cosmos 1782 Rocket 3.6 19:35:42 10° SSW 19:40:02 77° W 19:44:26 10° N
Cosmos 1025 Rocket 3.3 19:37:50 10° NNW 19:42:08 66° W 19:44:51 22° S
Cosmos 158 Rocket 4.2 19:39:53 10° NNW 19:44:32 43° ENE 19:44:48 42° ENE
Okean O Rocket 3.7 19:44:23 10° SSW 19:48:04 26° W 19:51:47 10° NW
Cosmos 1417 Rocket 4.4 19:42:52 10° N 19:48:59 64° ENE 19:51:03 41° SE
Cosmos 968 Rocket 4.0 19:45:07 10° SW 19:50:19 62° WNW 19:55:32 10° NNE
Lacrosse 4 Rocket 1.8 19:47:16 10° SSW 19:50:17 47° SSW 19:50:17 47° SSW
Cosmos 2026 Rocket 4.0 19:47:29 10° SSW 19:53:33 77° WNW 19:59:40 10° N
USA 186 3.3 19:55:51 30° SW 19:56:44 36° W 19:59:54 10° NNW
ATLAS 2AS CENTAUR R/B 3.8 19:51:45 10° NW 19:58:31 37° NNE 20:01:35 26° ENE
CSL-04 Rocket 4.1 19:55:05 17° S 19:59:07 59° WSW 20:04:30 10° NNW
MOS 1 4.2 20:01:33 55° SE 20:02:41 71° ENE 20:08:21 10° NNW
Cosmos 1553 Rocket 4.0 19:56:25 10° NNW 20:02:48 83° W 20:06:33 27° S
Cosmos 1470 4.3 20:01:31 10° SW 20:05:04 35° WNW 20:08:38 10° N
Cosmos 1536 Rocket 3.8 20:01:06 10° N 20:04:43 56° NNE 20:04:43 56° NNE
Landsat 7 4.0 20:04:06 43° SSW 20:05:33 67° WSW 20:10:17 10° NNW
deb Chang Zheng 4 3.4 20:05:56 79° WNW 20:05:56 79° WNW 20:09:55 10° NNW
ERS-1 Rocket 4.4 20:07:14 24° NE 20:07:14 24° NE 20:10:13 10° N
Cosmos 1975 Rocket 4.5 20:03:14 10° NNW 20:07:18 37° W 20:10:19 16° SSW
Cosmos 2322 Rocket 2.2 20:02:27 10° SW 20:08:10 80° WNW 20:13:55 10° NNE
SPOT 1/Viking Rocket 3.4 20:07:53 71° ESE 20:08:16 76° ENE 20:13:26 10° NNW
Cosmos 2237 4.3 20:03:17 10° SW 20:09:00 78° WNW 20:14:44 10° NNE
NOSS 3-4 (A) 3.8 20:03:26 10° NW 20:10:08 72° NE 20:12:04 51° ESE
NOSS 3-4 (C) 3.8 20:03:32 10° NW 20:10:15 71° NE 20:12:10 51° ESE
SPOT 3 Rocket 4.3 20:15:04 38° NE 20:15:04 38° NE 20:19:01 10° N
Cosmos 1758 4.0 20:15:55 50° NNW 20:15:55 50° NNW 20:19:08 10° N
Cosmos 1980 Rocket 4.3 20:10:37 10° W 20:15:08 24° NW 20:19:41 10° NNE
Ariane Rocket 3.2 20:16:26 55° NE 20:16:26 55° NE 20:20:53 10° N
NOSS 3-3 (A) 4.3 20:16:10 10° SSW 20:30:27 - NE 20:20:03 45° S
NOSS 3-3 (C) 4.4 20:16:16 10° SSW 20:30:32 - NE 20:19:58 42° S
Aureole 1 Rocket 3.8 20:19:04 10° SSW 20:26:18 76° ESE 20:31:57 10° NNE
USA 215 3.6 20:24:15 34° ENE 20:27:09 62° N 20:33:34 10° W
USA 281 3.6 20:27:40 44° ENE 20:28:08 45° NE 20:34:18 10° NNW
Meteor 1-16 Rocket 4.2 20:30:32 80° ENE 20:30:32 80° ENE 20:36:18 10° NNE
Cosmos 1844 Rocket 4.1 20:27:12 10° NW 20:32:13 33° WSW 20:34:40 23° SSW
Cosmos 2315 Rocket 3.9 20:31:41 10° N 20:37:56 73° ENE 20:37:56 73° ENE
Resurs 01 Rocket 2.4 20:38:52 49° WNW 20:38:52 49° WNW 20:42:29 10° NNW
SL-16 R/B 3.4 20:33:28 10° WSW 20:38:50 42° NW 20:44:14 10° NNE
Cosmos 1538 Rocket 4.5 20:33:55 10° NNW 20:38:20 54° NNE 20:38:20 54° NNE
Cosmos 1943 Rocket 3.6 20:34:56 10° NNW 20:38:59 25° NNE 20:38:59 25° NNE
Terra 3.5 20:42:42 24° NNE 20:42:42 24° NNE 20:44:54 10° N
H-2A R/B 4.1 20:43:39 31° WNW 20:43:39 31° WNW 20:46:11 10° NNW
Cosmos 2278 Rocket 2.6 20:42:50 10° NNW 20:47:32 54° N 20:47:32 54° N
MetOp-B 4.4 20:49:52 66° NW 20:49:52 66° NW 20:54:30 10° NNW
Cosmos 921 Rocket 4.4 20:49:24 10° NNW 20:52:22 38° NW 20:52:22 38° NW
Gbstr 26 Del rocket 4.4 20:46:10 10° W 20:54:10 89° S 20:55:06 74° E
Cosmos 2369 Rocket 4.1 20:54:47 10° NNW 20:58:48 19° NNE 20:58:48 19° NNE
Cosmos 2266 Rocket 4.2 21:11:31 67° W 21:11:36 67° WNW 21:17:58 10° N
SPOT 5 4.5 21:15:28 29° NNW 21:15:28 29° NNW 21:17:45 10° NNW
Cosmos 1655 Rocket 4.2 21:13:41 67° NW 21:13:41 67° NW 21:19:33 10° N
Cosmos 2333 Rocket 3.9 21:18:31 24° NNE 21:18:31 24° NNE 21:20:45 10° NNE
Cosmos 2360 Rocket 3.4 21:18:01 10° WSW 21:23:18 40° NW 21:28:36 10° NNE
ATLAS 2AS CENTAUR R/B 3.2 21:43:19 10° NW 21:49:00 56° NNW 21:49:00 56° NNW
Cosmos 2322 Rocket 4.3 21:48:38 10° W 21:53:08 23° NW 21:57:39 10° NNE
USA 215 4.0 22:11:37 47° NW 22:11:37 47° NW 22:16:16 10° WNW
USA 281 4.2 22:14:33 40° WNW 22:14:33 40° WNW 22:18:59 10° NW
Terra 4.5 22:21:36 16° NW 22:21:36 16° NW 22:22:43 10° NNW
Cosmos 1943 Rocket 4.2 22:18:24 10° NNW 22:20:29 24° NNW 22:20:29 24° NNW
Cosmos 2278 Rocket 4.4 22:27:27 10° NW 22:29:22 19° WNW 22:29:22 19° WNW
Cosmos 2369 Rocket 4.3 22:38:25 10° NNW 22:40:34 23° NNW 22:40:34 23° NNW
Cosmos 2219 Rocket 4.4 22:46:54 21° N 22:46:54 21° N 22:49:25 10° NNE
Cosmos 2333 Rocket 4.4 23:00:28 20° NNW 23:00:28 20° NNW 23:04:39 10° NNE
